Location: Three Oaks Observatory
(31.1535°N, 83.5955°W)
Time: 04:21:07
(UTC-04:00)

NO-84 - Visible Passes

Search period start: 21 March 2019 00:00
Search period end: 31 March 2019 00:00
Orbit: 331 x 530 km, 55.0° (Epoch: 14 March)

Date Brightness Start Highest point End Pass type
(mag) Time Alt. Az. Time Alt. Az. Time Alt. Az.
21 Mar ? 05:19:05 11° ENE 05:19:05 11° ENE 05:19:19 10° ENE visible
21 Mar ? 06:52:18 14° WNW 06:53:27 17° NW 06:55:28 10° N visible
22 Mar ? 06:10:26 24° NNW 06:10:26 24° NNW 06:12:12 10° NNE visible
23 Mar ? 05:28:26 11° NNE 05:28:26 11° NNE 05:28:38 10° NNE visible
